Other Surface Observations
Issued by NWS

Home | Current Version | Previous Version | Text Only | Print | Product List | Glossary On
Versions: 1 2 3 4 5 6 7 8 9 10 11 12 13 14 15 16 17 18 19 20 21 22 23 24 25 26 27 28 29 30 31 32 33 34 35 36 37 38 39 40 41 42 43 44 45 46 47 48 49 50
058
SXUS52 KTAE 231519
OSOTAE
OSOTAE
North Florida/South Alabama/Southwest Georgia Weather Roundup
National Weather Service Tallahassee Florida
1100 AM EDT SAT SEP 23 2017

Note: "fair" indicates few or no clouds below 12,000 feet with no
significant weather and/or obstructions to visibility.

!FLZ017-115-028-034-025-231600
...North Florida...

CITY           SKY/WX    TMP DP  RH WIND       PRES   REMARKS
TALLAHASSEE    MOSUNNY   81  71  71 NE6       29.98S
APALACHICOLA   SUNNY     83  73  72 E8        29.97R
PERRY          PTSUNNY   81  73  76 NE8       29.98S
CROSS CITY     PTSUNNY   83  72  69 NE8       30.00F
JACKSONVILLE   PTSUNNY   82  74  76 NE14      29.97R
$$

!FLZ112-006-005-002-011-231600
...Florida Panhandle...

CITY           SKY/WX    TMP DP  RH WIND       PRES   REMARKS
MARIANNA       SUNNY     81  71  71 E7        29.99S
BONIFAY        NOT AVBL
PANAMA CITY NW FAIR      83  69  62 NE9       29.97S
TYNDALL AFB    SUNNY     81  71  72 E6        29.97F
TYND DRONE APT FAIR      81  73  75 E7        29.97F
DE FUNIAK SPR  FAIR      81  66  60 E7        30.01R
EGLIN AFB      MOSUNNY   82  69  63 NE6       29.98R
DESTIN         SUNNY     84  71  65 E6        29.98R
HURLBURT       SUNNY     82  64  53 E8        29.97R
CRESTVIEW      SUNNY     83  69  62 E6        30.01R
PENSACOLA      SUNNY     83  71  67 E5        29.98R
$$

!ALZ063-066-231600
...South Alabama...

CITY           SKY/WX    TMP DP  RH WIND       PRES   REMARKS
DOTHAN         SUNNY     82  70  66 E7        30.05S
OZARK CAIRNS   SUNNY     81  72  74 NE7       30.01S
FT RUCKER HELI SUNNY     80  71  72 E5        30.01S
RUCKER HELI 3  FAIR      80  70  70 E6        30.01S
RUCKER HELI 2  FAIR      79  71  74 E8        30.01R
FLORALA APT    NOT AVBL
ANDALUSIA      SUNNY     85  68  56 E7        30.01R
TROY           SUNNY     81  71  71 E6        30.03S
EUFALA         FAIR      82  71  69 NE6       30.02S
MOBILE         SUNNY     82  72  69 E6        29.99S
$$

!GAZ120>161-231600
...Southwest and South Central Georgia...

CITY           SKY/WX    TMP DP  RH WIND       PRES   REMARKS
THOMASVILLE    FAIR      81  70  69 E10       30.01S
BAINBRIDGE     SUNNY     82  73  74 NE6       30.00S
MOODY AFB      SUNNY     81  69  65 NE10      29.99S
VALDOSTA       MOSUNNY   79  72  79 NE9       30.00S
MOULTRIE       SUNNY     81  68  65 E8        30.02R
BLAKELY        SUNNY     82  68  61 E6        30.02S
ALBANY         SUNNY     84  68  58 NE8       30.03S
TIFTON         FAIR      81  69  67 E7        30.01S
FITZGERALD     FAIR      82  70  66 NE6       30.05S
CORDELE        FAIR      86  69  56 NE7       30.04S
AMERICUS       FAIR      81  64  57 NE7       30.05S
HOMERVILLE     FAIR      81  68  65 E7        30.01S
$$

!GMZ750-755-770-775-231600
...Coastal and Buoy Obs...

STATION/POSITION TIME  TEMP    WIND        PRES    VSBY  WAVE
                       AIR SEA DIR/SP/G                  HT/PER
                 (UTC) (F)     (DEG/KT/KT) (MB)    (MI)  (FT/S)
KEATON BEACH     1500   79      50/  9/ 14 1014.5R
CEDAR KEY        1500   80      80/ 14/ 15 1014.5R
C TOWER          1500   79      70/ 13/ 15 1015.1R
APALACHICOLA BUO 1450   81 82   70/ 14/ 17 1013.4R         3/ 5
PANAMA CITY BUOY 1450   81 83   70/ 16/ 19 1013.2R         4/ 6
MOBILE BUOY      1500   82 83   80/  8/ 12 1014.3
ORANGE BCH AL BU 1450   82 84   80/ 12/ 16 1014.4R         1/ 3
$$




USA.gov is the U.S. government's official web portal to all federal, state and local government web resources and services.